Wind_Speed
30 30 32 34 36 37 39 38 36 40 41 43 40 36 41 34 36 35 33 32 32 33 36 35 35 35 33 35 32 35 38 41 47 51 54 56 58 59 61 62 62 62 64 65
24 23 24 26 27 29 30 29 32 34 35 34 35 31 36 32 33 33 34 34 34 34 35 34 30 30 34 39 41 43 47 51 52 55 56 59 63 64 63 64 63 66 68 70
21 21 20 21 22 21 23 26 26 28 30 29 31 29 31 35 30 31 34 36 36 35 37 31 29 31 35 40 44 47 52 54 56 56 61 65 65 66 68 71 72 73 73 74
14 15 16 17 19 18 24 20 23 23 27 26 30 29 27 34 34 32 37 39 35 38 42 39 38 37 39 43 48 50 53 57 59 60 63 65 67 71 73 75 77 78 81 83
14 16 18 19 19 19 22 21 21 22 23 28 31 33 27 25 34 35 41 34 31 38 43 42 42 44 46 48 51 55 57 55 56 64 67 69 73 76 77 78 80 83 87 91
14 15 15 15 16 16 17 19 21 23 25 28 35 35 33 30 30 32 41 43 40 40 39 40 42 45 49 53 57 59 59 61 62 61 65 72 77 81 82 84 86 90 94 97
9 10 9 7 7 7 11 14 17 20 21 25 27 32 27 23 23 29 34 36 39 41 41 39 42 45 51 55 56 58 63 66 67 70 74 77 79 82 85 88 91 96 101 105
2 2 1 1 2 3 4 6 7 9 11 16 19 21 25 27 23 20 25 31 33 38 42 41 43 47 50 53 56 59 64 66 70 74 79 84 87 91 93 96 100 104 109 112
5 4 3 2 3 4 7 10 13 16 20 22 18 22 24 29 30 28 29 30 32 38 43 42 45 49 54 57 58 60 63 70 77 81 85 90 95 96 100 104 110 114 119 122
0 1 3 4 7 10 13 15 18 19 21 27 29 27 27 29 34 35 35 36 39 44 49 48 50 54 58 60 61 64 68 74 81 87 91 95 100 103 109 114 119 124 128 131
4 4 5 8 11 14 16 18 20 23 23 24 31 38 32 34 37 40 43 44 46 47 50 51 56 59 59 61 62 67 74 79 84 91 95 100 104 108 116 122 127 131 133 135
7 8 11 12 14 16 18 20 22 25 30 29 33 40 41 39 44 45 46 48 48 49 52 54 58 60 62 65 69 73 79 85 89 94 99 103 107 113 120 127 130 131 133 128
10 11 14 16 19 21 23 25 27 29 32 39 40 44 40 39 44 43 45 49 49 53 56 56 57 61 64 69 74 79 86 91 95 100 105 111 115 119 127 131 132 127 121 121
14 14 15 17 19 23 26 29 32 34 35 37 41 42 47 48 43 49 49 48 52 55 56 56 60 64 69 73 80 86 91 95 99 105 113 120 124 126 128 128 131 132 128 125
16 18 19 22 26 29 33 35 37 37 39 41 44 45 45 51 53 49 49 51 53 56 59 63 68 71 75 81 87 93 97 103 109 113 120 127 131 131 133 136 133 124 122 114
21 23 26 29 33 35 39 39 41 40 41 44 45 47 48 50 51 53 54 56 56 58 61 65 69 74 81 87 92 98 103 108 115 120 125 131 133 128 128 122 113 111 108 104
25 29 33 37 39 42 41 43 45 46 45 48 46 50 53 54 55 54 54 57 59 61 66 69 74 81 86 92 97 103 107 114 122 127 132 130 128 130 118 109 100 95 95 93
30 33 37 40 41 42 42 42 47 50 51 56 55 53 55 56 55 57 57 57 62 66 72 76 83 88 93 98 104 110 116 123 127 131 130 129 130 119 114 107 98 94 91 86
32 35 38 39 41 44 44 45 50 55 57 61 62 62 62 59 59 58 58 61 66 73 77 84 88 93 99 106 111 117 122 129 134 135 131 129 127 117 107 102 98 92 86 82
36 41 46 47 48 51 52 52 57 58 61 63 65 66 65 62 63 63 66 70 75 81 85 91 94 101 107 113 119 124 130 132 136 134 128 129 118 109 103 96 91 85 81 77
45 50 53 53 56 57 60 60 64 65 64 65 68 67 64 63 64 66 70 76 80 85 90 95 100 107 114 120 126 130 134 135 134 128 128 121 107 100 95 88 84 78 74 72
53 57 60 62 63 60 55 56 63 67 65 65 66 66 64 66 68 71 77 82 84 88 93 99 104 111 119 125 131 133 136 134 127 128 119 110 101 94 89 84 78 74 70 67
57 63 66 67 68 60 59 60 64 68 67 67 66 65 66 69 74 79 84 88 92 96 101 106 113 118 124 129 135 135 135 133 130 120 110 101 94 87 82 77 73 69 66 63
65 69 69 68 69 68 64 63 66 68 67 66 68 70 73 77 82 86 92 94 98 102 107 113 119 125 131 132 135 134 134 130 121 110 101 93 87 82 77 72 69 66 63 60
70 70 72 72 75 72 68 71 72 69 68 70 73 77 81 85 88 93 98 102 105 109 114 119 123 130 134 134 134 132 131 124 111 102 94 88 83 78 73 68 65 62 59 56
70 73 73 73 76 74 72 76 76 74 74 76 80 84 88 91 96 101 105 107 112 115 119 124 128 134 134 135 132 130 122 110 101 93 87 83 77 73 68 66 63 59 56 54
Wind_Direction
237 239 241 242 243 243 248 253 259 260 261 260 260 259 262 258 261 265 266 269 271 271 275 277 278 282 286 292 291 291 292 292 292 294 292 294 295 297 297 299 300 298 297 297
238 239 242 248 253 256 259 261 251 256 252 255 259 257 261 264 266 271 276 274 269 270 273 278 280 285 290 291 291 291 293 293 293 292 294 296 298 301 301 300 298 298 298 297
242 244 247 249 247 251 250 246 250 253 259 262 265 262 271 272 268 268 269 270 277 280 283 278 278 280 281 285 286 287 288 290 293 295 296 299 303 303 303 303 303 302 300 297
239 246 250 252 252 251 257 251 260 261 264 275 268 267 266 268 274 268 267 268 276 283 288 287 288 287 285 284 284 287 291 293 297 300 302 303 303 303 304 304 304 305 304 301
241 244 245 250 250 249 256 259 261 267 272 272 270 279 269 261 260 274 277 275 282 290 289 290 292 291 289 288 288 289 290 293 297 304 307 307 307 305 304 304 305 304 302 301
244 249 254 260 267 270 274 277 278 278 279 280 281 276 277 266 265 272 275 281 282 282 286 288 288 288 285 286 289 292 293 295 301 303 304 305 306 307 305 305 304 302 301 300
260 265 266 274 283 284 280 280 280 280 280 281 285 295 310 298 274 268 274 276 280 285 283 283 281 279 282 288 292 293 297 301 303 305 305 305 304 304 303 301 300 299 298 298
239 168 162 62 4 15 357 343 338 326 314 309 323 325 313 313 308 292 280 277 282 285 285 286 287 289 289 289 292 298 299 300 300 304 305 304 304 304 303 303 300 298 298 299
106 105 77 63 7 343 331 327 320 318 313 310 309 308 304 305 303 299 293 289 289 289 288 294 295 295 294 297 298 299 300 300 303 304 305 307 306 304 304 301 300 299 297 298
189 334 316 323 318 316 314 319 320 316 315 315 309 303 307 305 307 308 304 301 295 293 297 298 297 298 302 301 300 301 302 302 302 304 307 306 306 305 302 300 300 300 302 303
238 269 284 294 300 302 306 312 312 306 301 301 308 308 306 303 303 301 301 300 297 298 297 298 298 300 300 298 298 301 303 303 303 304 304 303 303 301 301 301 302 303 305 306
256 268 278 285 292 296 299 297 290 296 307 303 303 306 309 308 304 302 299 293 294 297 297 297 300 301 301 302 303 302 301 302 304 303 301 301 301 302 301 302 306 310 310 308
268 279 293 296 298 296 302 312 315 314 313 316 315 310 308 310 309 307 304 304 304 301 302 303 302 301 299 298 298 300 303 304 303 302 303 303 303 304 306 308 310 313 312 310
281 286 292 302 310 313 310 309 307 306 305 307 308 308 313 311 309 312 308 301 301 303 301 300 300 299 298 299 301 304 304 304 304 304 304 305 306 306 311 313 316 316 313 311
283 290 294 300 306 306 306 306 306 306 304 305 307 310 310 311 312 307 303 305 305 305 304 303 304 304 303 304 305 306 306 305 306 307 307 306 309 313 314 313 315 313 311 308
286 295 299 303 308 308 308 309 306 307 310 311 309 309 307 310 311 308 307 308 307 306 305 304 303 304 306 309 309 308 307 306 307 307 308 309 313 316 316 314 313 311 309 308
292 300 306 307 308 308 310 310 309 310 309 309 306 307 309 310 311 310 306 306 305 306 306 307 308 309 310 309 307 307 307 307 309 310 310 315 318 318 316 312 311 310 310 309
299 302 304 304 307 307 309 308 306 307 309 309 308 306 305 306 308 308 306 306 307 308 309 308 308 309 309 309 309 310 311 310 310 313 318 320 320 319 316 315 316 316 314 312
302 305 305 307 309 308 309 307 305 306 306 306 306 308 309 309 309 308 308 309 309 309 309 310 311 311 311 312 312 311 312 314 315 318 322 322 321 320 316 317 316 315 314 313
301 302 303 304 306 306 304 303 301 301 303 304 306 308 310 310 312 312 311 311 311 312 312 312 311 311 312 312 313 314 315 316 316 319 322 322 321 318 318 318 317 316 315 313
300 303 303 303 306 306 305 303 301 302 303 303 306 308 310 310 310 310 311 311 310 311 311 310 310 311 312 314 315 315 316 316 318 321 322 321 319 318 318 317 316 316 315 314
300 301 300 302 305 306 305 303 300 300 302 304 306 307 310 312 311 310 310 312 311 310 310 310 310 312 313 314 315 316 317 320 322 322 322 321 319 320 319 318 317 317 316 316
296 295 297 301 306 305 306 303 301 303 305 307 308 307 308 309 309 309 310 311 312 312 312 312 314 315 314 315 317 316 319 320 322 321 321 320 320 320 319 318 318 318 318 318
293 294 298 301 303 304 302 300 299 301 305 306 307 308 309 309 308 309 311 312 312 312 314 315 314 315 318 316 317 318 319 321 321 321 320 321 321 321 320 320 320 320 320 319
292 295 298 303 302 302 302 301 301 303 306 307 308 308 310 310 310 310 310 312 313 314 314 314 315 317 316 317 318 319 320 320 320 320 321 322 322 321 320 320 321 321 320 321
292 293 299 299 300 302 301 301 303 305 307 307 307 309 309 310 310 311 312 313 313 313 314 315 316 316 317 317 318 319 320 320 320 320 322 322 321 320 321 321 321 321 322 321
Height
10676 10679 10683 10686 10688 10689 10691 10692 10694 10691 10693 10694 10694 10696 10688 10692 10688 10687 10688 10687 10685 10683 10679 10679 10678 10674 10671 10665 10665 10663 10662 10660 10654 10650 10642 10633 10628 10622 10616 10613 10609 10603 10595 10589
10674 10676 10679 10681 10682 10683 10684 10686 10685 10684 10685 10685 10685 10690 10680 10685 10682 10680 10678 10679 10680 10677 10674 10672 10669 10667 10664 10660 10656 10652 10647 10643 10642 10635 10629 10622 10616 10609 10602 10596 10593 10587 10580 10572
10670 10671 10672 10673 10675 10677 10679 10680 10682 10679 10679 10679 10678 10680 10678 10675 10680 10677 10674 10670 10669 10667 10661 10663 10662 10660 10657 10653 10648 10644 10639 10632 10629 10625 10617 10609 10602 10593 10585 10577 10572 10565 10559 10551
10665 10667 10669 10670 10671 10674 10670 10676 10674 10675 10673 10673 10670 10673 10677 10672 10671 10674 10670 10664 10665 10660 10655 10655 10654 10652 10648 10643 10638 10634 10629 10622 10615 10609 10604 10597 10587 10577 10569 10562 10553 10544 10534 10525
10663 10665 10665 10665 10666 10667 10665 10667 10667 10667 10668 10666 10664 10666 10669 10672 10668 10666 10656 10659 10660 10657 10651 10646 10643 10639 10634 10629 10625 10622 10618 10614 10608 10595 10584 10577 10568 10560 10552 10542 10533 10523 10511 10501
10659 10660 10660 10661 10661 10662 10662 10661 10661 10661 10661 10660 10654 10655 10659 10659 10661 10661 10654 10648 10649 10649 10647 10643 10637 10631 10624 10618 10614 10610 10604 10599 10594 10588 10579 10566 10554 10544 10533 10523 10512 10501 10489 10479
10655 10656 10656 10657 10657 10657 10656 10656 10656 10655 10655 10652 10650 10646 10648 10648 10650 10649 10645 10643 10641 10638 10634 10634 10629 10625 10618 10611 10604 10596 10588 10579 10573 10567 10559 10550 10542 10532 10520 10508 10498 10484 10470 10458
10653 10654 10654 10654 10654 10655 10655 10655 10655 10654 10652 10650 10649 10648 10644 10641 10641 10641 10639 10637 10635 10628 10623 10623 10619 10612 10607 10602 10597 10588 10578 10569 10561 10553 10541 10529 10518 10508 10497 10484 10471 10457 10442 10431
10652 10653 10654 10654 10655 10655 10655 10654 10653 10651 10648 10646 10647 10643 10640 10635 10633 10634 10631 10629 10624 10619 10612 10612 10608 10601 10593 10587 10583 10576 10566 10554 10541 10532 10522 10511 10498 10484 10469 10453 10441 10429 10413 10402
10651 10652 10652 10653 10653 10653 10652 10650 10649 10647 10643 10638 10636 10637 10636 10632 10626 10622 10621 10618 10614 10609 10601 10598 10593 10586 10581 10574 10567 10560 10551 10541 10528 10515 10503 10489 10476 10463 10445 10429 10415 10398 10382 10367
10650 10651 10651 10651 10651 10650 10648 10646 10644 10642 10641 10638 10630 10624 10629 10627 10624 10618 10611 10608 10603 10598 10592 10588 10579 10573 10567 10560 10554 10546 10535 10523 10511 10499 10486 10473 10460 10445 10422 10403 10387 10369 10351 10332
10648 10648 10648 10648 10648 10646 10645 10643 10641 10636 10632 10631 10626 10619 10617 10618 10609 10606 10603 10595 10592 10589 10581 10575 10567 10559 10551 10542 10536 10526 10517 10506 10495 10482 10467 10453 10438 10422 10398 10374 10355 10335 10318 10294
10645 10645 10644 10644 10642 10641 10638 10636 10634 10632 10628 10620 10617 10609 10610 10609 10599 10594 10586 10579 10576 10570 10565 10560 10554 10547 10538 10530 10522 10512 10501 10487 10474 10458 10441 10427 10411 10393 10369 10345 10323 10303 10278 10254
10641 10641 10640 10639 10638 10636 10633 10631 10628 10625 10621 10617 10609 10605 10599 10593 10593 10582 10575 10574 10567 10560 10554 10548 10542 10535 10526 10516 10505 10493 10480 10466 10451 10431 10410 10391 10377 10361 10341 10313 10289 10266 10242 10219
10637 10636 10635 10633 10632 10629 10626 10623 10619 10616 10612 10607 10600 10595 10592 10584 10576 10574 10568 10563 10556 10548 10540 10533 10525 10516 10505 10494 10482 10468 10452 10435 10422 10405 10383 10359 10339 10326 10309 10282 10264 10242 10213 10193
10632 10630 10628 10627 10624 10622 10617 10614 10609 10607 10604 10598 10592 10585 10581 10574 10567 10561 10554 10547 10541 10534 10527 10518 10509 10499 10487 10474 10460 10445 10429 10412 10393 10377 10356 10331 10311 10298 10280 10258 10235 10210 10184 10165
10627 10625 10622 10619 10616 10613 10611 10605 10598 10595 10593 10588 10585 10578 10569 10563 10557 10549 10543 10536 10529 10521 10512 10503 10492 10481 10469 10455 10440 10423 10406 10388 10368 10347 10324 10300 10279 10258 10235 10216 10201 10183 10162 10143
10620 10618 10615 10612 10609 10604 10603 10598 10591 10585 10582 10573 10569 10567 10562 10555 10548 10539 10532 10524 10516 10506 10497 10486 10475 10463 10448 10432 10417 10399 10377 10355 10337 10316 10293 10270 10243 10224 10196 10176 10162 10148 10132 10117
10610 10610 10607 10604 10601 10596 10595 10590 10582 10575 10572 10562 10555 10550 10544 10539 10534 10528 10520 10512 10503 10493 10481 10468 10454 10439 10422 10405 10388 10372 10350 10326 10301 10277 10256 10235 10213 10194 10173 10157 10137 10123 10109 10094
10601 10599 10596 10594 10592 10588 10584 10581 10572 10567 10561 10551 10545 10538 10530 10524 10517 10507 10498 10490 10480 10470 10458 10446 10432 10415 10398 10380 10361 10341 10318 10298 10273 10253 10235 10213 10192 10167 10148 10132 10115 10102 10088 10074
10592 10588 10583 10583 10580 10576 10571 10564 10554 10549 10547 10539 10531 10525 10518 10511 10503 10496 10486 10476 10466 10454 10441 10427 10411 10392 10373 10353 10334 10314 10291 10270 10247 10228 10207 10184 10166 10147 10130 10115 10099 10085 10072 10058
10580 10575 10571 10568 10565 10565 10560 10553 10541 10534 10531 10527 10520 10510 10503 10495 10487 10478 10468 10458 10446 10434 10420 10404 10389 10371 10349 10328 10309 10288 10264 10241 10221 10200 10181 10161 10141 10125 10108 10093 10080 10067 10055 10042
10569 10560 10558 10553 10548 10547 10545 10537 10528 10519 10515 10509 10504 10498 10490 10481 10471 10461 10450 10438 10425 10410 10396 10380 10362 10346 10325 10303 10280 10258 10237 10214 10197 10174 10156 10139 10122 10106 10092 10078 10065 10052 10040 10028
10552 10547 10544 10541 10534 10532 10531 10524 10516 10509 10503 10495 10487 10479 10473 10463 10453 10441 10429 10416 10403 10387 10371 10353 10337 10318 10299 10277 10254 10233 10212 10189 10172 10153 10135 10118 10102 10088 10075 10062 10049 10037 10026 10015
10532 10528 10526 10524 10513 10512 10509 10503 10497 10491 10485 10476 10468 10461 10452 10442 10430 10418 10406 10393 10378 10362 10347 10329 10310 10293 10273 10251 10230 10208 10187 10165 10148 10131 10115 10098 10085 10071 10059 10047 10036 10025 10015 10003
10517 10514 10514 10510 10499 10495 10490 10481 10475 10471 10466 10458 10448 10441 10431 10420 10408 10395 10381 10367 10354 10339 10321 10304 10285 10267 10247 10226 10206 10185 10165 10145 10129 10113 10098 10083 10071 10058 10044 10033 10023 10013 10002 9994